Weather History for Abilene, TX

Change the Weather History Date:

Sunday, November 27, 2011

  Actual Average Record
Temperature  
Mean Temperature 41 °F 50 °F  
Max Temperature 52 °F 62 °F 88 °F (1949)
Min Temperature 30 °F 38 °F 13 °F (1887)
Degree Days  
Heating Degree Days 24 15  
Month to date heating degree days 252 281  
Since 1 July heating degree days 328 385  
Cooling Degree Days 0 0  
Month to date cooling degree days 30 15  
Year to date cooling degree days 3517 2404  
Moisture  
Dew Point 12 °F    
Average Humidity 32    
Maximum Humidity 52    
Minimum Humidity 12    
Precipitation  
Precipitation 0.00 in 0.04 in 1.11 in (1908)
Month to date precipitation 0.18 1.30  
Year to date precipitation 14.90 23.48  
Sea Level Pressure  
Sea Level Pressure 30.38 in    
Wind  
Wind Speed 14 mph (NW)    
Max Wind Speed 29 mph    
Max Gust Speed 36 mph    
Visibility 10 miles    
Events      
T = Trace of Precipitation, MM = Missing Value Source: NWS Daily Summary

Daily Weather History Graph

Daily Weather History Graph

Search for Another Location

Airport:

Trip Planner

Search our weather history database for the weather conditions in past years. The results will help you decide how hot, cold, wet, or windy it might be!

Date:

Astronomy

Nov. 27, 2011 Rise Set
Actual Time 7:18 AM CST 5:33 PM CST
Civil Twilight 6:52 AM CST 6:00 PM CST
Nautical Twilight 6:21 AM CST 6:30 PM CST
Astronomical Twilight 5:52 AM CST 7:00 PM CST
Moon 9:43 AM CST (11/27) 8:14 PM CST (11/27)
Length of Visible Light 11h 08m
Length of Day
10h 15m
Waxing Crescent, 8% of the Moon is Illuminated
Nov 27
Waxing Crescent
Dec 2
First Quarter
Dec 10
Full
Dec 17
Last Quarter
Dec 24
New

Hourly Weather History & Observations

Time (CST) Temp. Windchill Dew Point Humidity Pressure Visibility Wind Dir Wind Speed Gust Speed Precip Events Conditions
12:52 AM 42.1 °F 33.6 °F 21.0 °F 43% 30.40 in 10.0 mi NNW 18.4 mph 25.3 mph N/A   Clear
1:52 AM 41.0 °F 33.1 °F 21.0 °F 45% 30.40 in 10.0 mi NNW 15.0 mph 23.0 mph N/A   Clear
2:52 AM 39.0 °F 30.6 °F 19.9 °F 46% 30.41 in 10.0 mi NW 15.0 mph - N/A   Clear
3:52 AM 37.9 °F 29.6 °F 19.9 °F 48% 30.42 in 10.0 mi NW 13.8 mph - N/A   Clear
4:52 AM 37.0 °F 27.7 °F 19.0 °F 48% 30.41 in 10.0 mi NW 16.1 mph - N/A   Clear
5:52 AM 36.0 °F 27.1 °F 19.0 °F 50% 30.42 in 10.0 mi NW 13.8 mph - N/A   Clear
6:52 AM 35.1 °F 25.5 °F 18.0 °F 50% 30.44 in 10.0 mi NW 15.0 mph 26.5 mph N/A   Clear
7:52 AM 35.1 °F 25.5 °F 18.0 °F 50% 30.45 in 10.0 mi NW 15.0 mph - N/A   Clear
8:52 AM 37.9 °F 28.5 °F 17.1 °F 43% 30.46 in 10.0 mi NW 17.3 mph 25.3 mph N/A   Clear
9:52 AM 42.1 °F 32.1 °F 12.9 °F 31% 30.47 in 10.0 mi NNW 25.3 mph 34.5 mph N/A   Clear
10:52 AM 45.0 °F 36.4 °F 10.0 °F 24% 30.46 in 10.0 mi NNW 23.0 mph 29.9 mph N/A   Clear
11:52 AM 46.9 °F - 9.0 °F 21% 30.44 in 10.0 mi NNW 19.6 mph 29.9 mph N/A   Clear
12:52 PM 48.9 °F - 6.1 °F 18% 30.40 in 10.0 mi NNW 20.7 mph - N/A   Clear
1:52 PM 50.0 °F - -0.0 °F 13% 30.37 in 10.0 mi NW 21.9 mph 28.8 mph N/A   Clear
2:52 PM 51.1 °F - 1.0 °F 13% 30.35 in 10.0 mi NNW 20.7 mph 27.6 mph N/A   Clear
3:52 PM 52.0 °F - 1.9 °F 13% 30.33 in 10.0 mi NNW 17.3 mph 25.3 mph N/A   Clear
4:52 PM 51.1 °F - 3.0 °F 14% 30.33 in 10.0 mi NNW 16.1 mph - N/A   Clear
5:52 PM 45.0 °F 41.8 °F 5.0 °F 19% 30.32 in 10.0 mi NW 5.8 mph - N/A   Clear
6:52 PM 42.1 °F 40.2 °F 8.1 °F 25% 30.32 in 10.0 mi NW 3.5 mph - N/A   Clear
7:52 PM 43.0 °F 40.3 °F 10.0 °F 26% 30.31 in 10.0 mi NNW 4.6 mph - N/A   Clear
8:52 PM 39.9 °F 37.8 °F 10.9 °F 31% 30.31 in 10.0 mi WNW 3.5 mph - N/A   Clear
9:52 PM 32.0 °F 27.5 °F 14.0 °F 48% 30.31 in 10.0 mi South 4.6 mph - N/A   Clear
10:52 PM 32.0 °F 27.5 °F 12.9 °F 45% 30.30 in 10.0 mi SSW 4.6 mph - N/A   Clear
11:52 PM 30.9 °F 25.2 °F 14.0 °F 50% 30.28 in 10.0 mi SSW 5.8 mph - N/A   Clear